Location: Street
(51.1247°N, 2.7429°W)
Time: 04:23:04
(UTC+00:00)

Transit 2A Rocket - Pass Details

Date: 01 December 2020
Orbit: 592 x 911 km, 66.7° (Epoch: 16 January)

Event Time Altitude Azimuth Distance (km) Brightness Sun altitude
Exits shadow 05:36:52 15° 343° (NNW) 2,004 6.9 -20.4°
Maximum altitude 05:37:30 15° 351° (N) 1,976 6.9 -20.3°
Drops below altitude 10° 05:40:31 10° 27° (NNE) 2,261 7.6 -19.9°
Sets 05:43:49 0° 50° (NE) 3,111 8.7 -19.4°
